This is the latest recevied weather packets stored in our database for station/object G4KVI. If no packets are shown the sender has not sent any weather packets the latest 1 day(s).
| Time | Temp. | Humidity | Pressure | Rain* | Wind** | Luminosity | Snow |
|---|---|---|---|---|---|---|---|
| 1778027103 | 10° C | 74% | 1015.7 hPa | 0 mm | 0.45 m/s, 332° | 0 W/m² | - |
| 1778026803 | 10° C | 74% | 1015.6 hPa | 0 mm | 0.45 m/s, 349° | 0 W/m² | - |
| 1778026503 | 10.56° C | 74% | 1015.7 hPa | 0 mm | 0.45 m/s, 19° | 0 W/m² | - |
| 1778026203 | 10.56° C | 74% | 1015.6 hPa | 0 mm | 0.45 m/s, 3° | 0 W/m² | - |
| 1778025903 | 10.56° C | 73% | 1015.7 hPa | 0 mm | 0.45 m/s, 10° | 0 W/m² | - |
| 1778025603 | 10.56° C | 73% | 1015.3 hPa | 0 mm | 0.45 m/s, 5° | 0 W/m² | - |
| 1778025303 | 10.56° C | 73% | 1015.4 hPa | 0 mm | 0.45 m/s, 337° | 0 W/m² | - |
| 1778025003 | 10.56° C | 73% | 1015.5 hPa | 0 mm | 0.45 m/s, 342° | 0 W/m² | - |
| 1778024703 | 10.56° C | 72% | 1015.6 hPa | 0 mm | 0.45 m/s, 343° | 0 W/m² | - |
| 1778024403 | 10.56° C | 72% | 1015.6 hPa | 0 mm | 0.45 m/s, 341° | 0 W/m² | - |
| 1778024103 | 10.56° C | 72% | 1015.6 hPa | 0 mm | 0.45 m/s, 353° | 0 W/m² | - |
| 1778023803 | 10.56° C | 72% | 1015.3 hPa | 0 mm | 0.45 m/s, 349° | 0 W/m² | - |
| 1778023503 | 10.56° C | 71% | 1015.5 hPa | 0 mm | 0.45 m/s, 346° | 0 W/m² | - |
| 1778023203 | 10.56° C | 71% | 1015.5 hPa | 0 mm | 0.89 m/s, 345° | 0 W/m² | - |
| 1778022903 | 10.56° C | 71% | 1015.8 hPa | 0 mm | 0.45 m/s, 339° | 0 W/m² | - |
| 1778022603 | 10.56° C | 71% | 1015.5 hPa | 0 mm | 0.89 m/s, 327° | 0 W/m² | - |
| 1778022303 | 10.56° C | 70% | 1015.8 hPa | 0 mm | 0.89 m/s, 318° | 0 W/m² | - |
| 1778022003 | 10.56° C | 70% | 1015.6 hPa | 0 mm | 0.89 m/s, 328° | 0 W/m² | - |
| 1778021703 | 10.56° C | 70% | 1015.9 hPa | 0 mm | 0.89 m/s, 331° | 0 W/m² | - |
| 1778021403 | 10.56° C | 70% | 1015.6 hPa | 0 mm | 0.89 m/s, 328° | 0 W/m² | - |
| 1778021103 | 10.56° C | 70% | 1015.6 hPa | 0 mm | 0.89 m/s, 331° | 0 W/m² | - |
| 1778020803 | 11.11° C | 69% | 1015.5 hPa | 0 mm | 0.89 m/s, 328° | 0 W/m² | - |
| 1778020503 | 11.11° C | 69% | 1015.6 hPa | 0 mm | 0.45 m/s, 334° | 0 W/m² | - |
| 1778020203 | 11.11° C | 69% | 1015.7 hPa | 0 mm | 0.45 m/s, 332° | 0 W/m² | - |
| 1778019903 | 11.11° C | 69% | 1015.5 hPa | 0 mm | 0.45 m/s, 318° | 0 W/m² | - |
* Rain latest hour (hover to see other rain measurements)
** Current wind speed in m/s (hover to see current wind gust speed)